Location: Evansville
(37.9747°N, 87.5558°W)
Time: 03:28:21
(UTC-06:00)

BlueWalker 3 - Pass Details

Date: 20 December 2025
Orbit: 451 x 463 km, 53.2° (Epoch: 18 January)

Event Time Altitude Azimuth Distance (km) Brightness Sun altitude
Rises 06:22:39 0° 230° (SW) 2,447 5.2 -7.8°
Reaches altitude 10° 06:24:46 10° 232° (SW) 1,580 4.2 -7.4°
Maximum altitude 06:28:19 75° 318° (NW) 474 1.7 -6.8°
Drops below altitude 10° 06:31:54 10° 45° (NE) 1,597 4.8 -6.1°
Sets 06:34:04 0° 47° (NE) 2,476 5.8 -5.7°
